Date_and_time,latitude,longitude,wind_speed,RelWindDirFrom,WindDirFrom,air_pressure,air_temperature,relative_humidity,Temp,platform_speed_wrt_ground,air_pressure_at_mean_sea_level,platform_orientation
2018-09-27 00:00,51.68659,-96.787695,21.0,23.8,152,978.78,9.5,68,12.08,10.4,1005.43,157.7
2018-09-27 00:10,51.6595183333333,-96.7719716666667,19.9,22.3,165,979.04,9.4,72,12.20,10.4,1005.70,157.7
2018-09-27 00:20,51.6378483333333,-96.7962516666667,15.0,19.6,190,979.23,9.0,75,12.10,9.5,1005.93,157.7
2018-09-27 00:30,51.6393133333333,-96.8027733333333,3.6,7.7,181,979.78,9.2,77,11.76,1.5,1006.49,157.7
2018-09-27 00:40,51.6393166666667,-96.8027716666667,4.7,7.3,166,979.78,10.1,75,11.70,0.0,1006.44,157.7
2018-09-27 00:50,51.6393133333333,-96.8027683333333,5.1,8.2,153,979.67,9.8,78,11.71,0.0,1006.34,157.7
2018-09-27 01:00,51.6393166666667,-96.80277,5.5,8.4,153,979.62,9.5,81,11.70,0.0,1006.32,170.9
2018-09-27 01:10,51.6393283333333,-96.8027616666667,6.0,8.0,165,979.68,9.8,78,11.69,0.0,1006.36,170.9
2018-09-27 01:20,51.6393283333333,-96.8027616666667,5.1,6.8,168,979.77,10.3,77,11.67,0.0,1006.44,170.9
2018-09-27 01:30,51.639325,-96.80276,5.6,7.8,170,979.80,10.0,78,11.67,0.0,1006.48,170.9
2018-09-27 01:40,51.639325,-96.80276,6.7,10.3,177,979.81,10.4,75,11.66,0.0,1006.46,170.9
2018-09-27 01:50,51.6393233333333,-96.80276,7.3,8.9,178,979.78,9.7,78,11.66,0.0,1006.46,170.9
2018-09-27 02:00,51.6393233333333,-96.8027633333333,7.8,10.8,182,979.75,9.2,78,11.66,0.0,1006.46,164.6
2018-09-27 02:10,51.6393233333333,-96.8027633333333,7.3,9.2,183,979.73,9.2,77,11.66,0.0,1006.46,164.6
2018-09-27 02:20,51.6393233333333,-96.802765,7.1,9.2,200,979.75,7.8,82,11.66,0.0,1006.54,164.6
2018-09-27 02:30,51.6393233333333,-96.802765,6.9,8.9,210,979.75,7.3,83,11.64,0.0,1006.53,164.6
2018-09-27 02:40,51.6393216666667,-96.802765,7.1,9.2,206,979.80,7.2,83,11.63,0.0,1006.59,164.6
2018-09-27 02:50,51.6393216666667,-96.8027666666667,7.1,8.9,211,979.83,7.1,84,11.62,0.0,1006.64,164.6
2018-09-27 03:00,51.6393216666667,-96.8027666666667,7.8,10.0,203,979.82,7.1,83,11.60,0.0,1006.62,191.2
2018-09-27 03:10,51.6393233333333,-96.8027666666667,6.9,8.8,202,979.84,7.0,84,11.60,0.0,1006.62,191.2
2018-09-27 03:20,51.6393233333333,-96.8027666666667,6.6,9.0,209,979.81,7.0,85,11.59,0.0,1006.61,191.2
2018-09-27 03:30,51.6393233333333,-96.8027666666667,6.0,7.8,207,979.78,7.0,84,11.58,0.0,1006.56,191.2
2018-09-27 03:40,51.6393233333333,-96.802765,6.0,7.5,205,979.66,6.9,84,11.58,0.0,1006.47,191.2
2018-09-27 03:50,51.6393233333333,-96.802765,6.2,8.2,211,979.61,6.9,84,11.56,0.0,1006.44,191.2
2018-09-27 04:00,51.6393233333333,-96.802765,6.1,7.4,208,979.63,6.8,84,11.56,0.0,1006.47,46.8
2018-09-27 04:10,51.6393233333333,-96.802765,6.6,8.3,203,979.59,6.9,85,11.58,0.0,1006.48,46.8
2018-09-27 04:20,51.6393233333333,-96.802765,6.3,7.7,205,979.54,6.9,85,11.59,0.0,1006.46,46.8
2018-09-27 04:30,51.6393233333333,-96.802765,7.3,8.9,222,979.51,6.8,85,11.59,0.0,1006.43,46.8
2018-09-27 04:40,51.6393233333333,-96.802765,6.5,8.3,219,979.49,6.6,86,11.59,0.0,1006.43,46.8
2018-09-27 04:50,51.6393316666667,-96.802765,6.6,7.8,211,979.39,6.5,86,11.58,0.0,1006.33,46.8
2018-09-27 05:00,51.6393233333333,-96.8027666666667,5.6,7.1,229,979.42,6.6,86,11.58,0.0,1006.37,0.0
2018-09-27 05:10,51.6393233333333,-96.8027683333333,5.5,7.0,236,979.39,6.4,88,11.58,0.0,1006.34,0.0
2018-09-27 05:20,51.6393233333333,-96.8027666666667,5.3,7.1,240,979.37,6.2,91,11.58,0.0,1006.34,0.0
2018-09-27 05:30,51.639325,-96.8027683333333,5.1,6.5,248,979.32,6.1,93,11.58,0.0,1006.29,0.0
2018-09-27 05:40,51.639325,-96.80277,3.5,6.2,257,979.37,6.0,96,11.57,0.0,1006.35,0.0
2018-09-27 05:50,51.6393116666667,-96.8027833333333,1.9,3.6,276,979.50,5.9,97,11.57,0.0,1006.49,0.0
2018-09-27 06:00,51.6393166666667,-96.80278,1.1,2.1,336,979.55,5.9,98,11.55,0.0,1006.54,245.3
2018-09-27 06:10,51.63932,-96.80278,0.2,1.1,332,979.57,5.8,99,11.55,0.0,1006.56,245.3
2018-09-27 06:20,51.63932,-96.80278,1.4,2.3,269,979.54,5.7,99,11.55,0.0,1006.54,245.3
2018-09-27 06:30,51.6393216666667,-96.80278,1.4,2.4,287,979.53,5.8,99,11.54,0.0,1006.54,245.3
2018-09-27 06:40,51.6393183333333,-96.80278,1.2,1.6,303,979.57,5.7,99,11.55,0.0,1006.59,245.3
2018-09-27 06:50,51.6393166666667,-96.8027783333333,0.8,1.4,323,979.58,5.7,99,11.54,0.0,1006.60,245.3
2018-09-27 07:00,51.6393166666667,-96.8027783333333,0.9,1.5,317,979.63,5.8,99,11.53,0.0,1006.65,247.6
2018-09-27 07:10,51.6393166666667,-96.8027783333333,1.1,2.4,344,979.63,5.9,99,11.53,0.0,1006.66,247.6
2018-09-27 07:20,51.6393166666667,-96.8027766666667,1.7,2.9,40,979.62,6.0,99,11.50,0.0,1006.64,247.6
2018-09-27 07:30,51.6393166666667,-96.8027766666667,1.0,2.4,22,979.62,6.2,99,11.52,0.0,1006.64,247.6
2018-09-27 07:40,51.6393133333333,-96.8027466666667,2.6,4.3,346,979.60,6.1,99,11.53,0.0,1006.63,247.6
2018-09-27 07:50,51.63932,-96.80276,3.5,5.0,4,979.52,6.1,99,11.53,0.0,1006.55,247.6
2018-09-27 08:00,51.6393216666667,-96.8027633333333,2.6,4.3,12,979.50,6.2,99,11.53,0.0,1006.53,90.0
2018-09-27 08:10,51.6393216666667,-96.8027666666667,1.5,2.8,20,979.54,6.3,99,11.53,0.0,1006.57,90.0
2018-09-27 08:20,51.6393216666667,-96.8027683333333,0.5,2.1,42,979.60,6.5,99,11.52,0.0,1006.62,90.0
2018-09-27 08:30,51.6393216666667,-96.8027666666667,4.0,6.4,77,979.53,7.1,98,11.53,0.0,1006.52,90.0
2018-09-27 08:40,51.639325,-96.8027633333333,6.8,8.3,72,979.50,7.3,97,11.52,0.0,1006.48,90.0
2018-09-27 08:50,51.6393283333333,-96.8027816666667,7.9,9.7,71,979.55,7.2,98,11.51,0.0,1006.53,90.0
2018-09-27 09:00,51.63933,-96.8027716666667,8.9,10.2,74,979.60,7.0,99,11.51,0.0,1006.59,360.0
2018-09-27 09:10,51.6393266666667,-96.8027666666667,9.0,10.4,68,979.66,6.8,99,11.51,0.0,1006.66,360.0
2018-09-27 09:20,51.6393266666667,-96.802765,9.1,11.1,68,979.75,6.6,99,11.50,0.0,1006.75,360.0
2018-09-27 09:30,51.6393266666667,-96.802765,9.3,11.0,66,979.87,6.5,99,11.50,0.0,1006.88,360.0
2018-09-27 09:40,51.639325,-96.8027633333333,8.8,10.9,57,979.93,6.5,99,11.51,0.0,1006.94,360.0
2018-09-27 09:50,51.6393266666667,-96.8027633333333,7.0,10.8,50,980.02,6.4,99,11.50,0.0,1007.03,360.0
2018-09-27 10:00,51.6393266666667,-96.802765,7.8,10.0,57,980.08,6.4,99,11.50,0.0,1007.08,47.6
2018-09-27 10:10,51.6393266666667,-96.802765,7.3,11.3,48,980.18,6.3,99,11.50,0.0,1007.18,47.6
2018-09-27 10:20,51.639325,-96.802765,6.4,9.6,46,980.26,6.2,99,11.53,0.0,1007.24,47.6
2018-09-27 10:30,51.639325,-96.802765,5.9,10.3,42,980.36,6.0,99,11.58,0.0,1007.35,47.6
2018-09-27 10:40,51.639325,-96.8027666666667,4.5,7.3,36,980.50,5.8,100,11.58,0.0,1007.51,47.6
2018-09-27 10:50,51.639325,-96.8027666666667,3.8,7.5,31,980.60,5.8,99,11.59,0.0,1007.62,47.6
2018-09-27 11:00,51.6392983333333,-96.8027483333333,3.3,5.7,21,980.69,5.7,99,11.60,0.0,1007.73,360.0
2018-09-27 11:10,51.6393083333333,-96.80276,3.6,7.5,23,980.77,5.6,99,11.60,0.0,1007.83,360.0
2018-09-27 11:20,51.6393133333333,-96.802765,4.0,7.2,13,980.85,5.5,99,11.60,0.0,1007.92,360.0
2018-09-27 11:30,51.639315,-96.8027633333333,4.2,8.0,12,980.97,5.4,99,11.58,0.0,1008.05,360.0
2018-09-27 11:40,51.639315,-96.8027616666667,4.4,9.3,22,981.07,5.4,99,11.56,0.0,1008.15,360.0
2018-09-27 11:50,51.639315,-96.8027633333333,5.0,10.7,30,981.21,5.5,99,11.52,0.0,1008.29,360.0
2018-09-27 12:00,51.6393166666667,-96.8027633333333,4.5,8.2,25,981.38,5.4,99,11.52,0.0,1008.47,360.0
2018-09-27 12:10,51.639315,-96.8027633333333,4.9,8.6,25,981.55,5.2,99,11.46,0.0,1008.67,360.0
2018-09-27 12:20,51.641665,-96.7874733333333,12.1,21.2,27,981.41,5.2,99,11.43,3.5,1008.53,360.0
2018-09-27 12:30,51.659125,-96.77231,20.3,24.7,23,980.88,5.0,99,11.68,7.1,1008.00,360.0
2018-09-27 12:40,51.6873466666667,-96.7805166666667,21.4,26.6,11,981.05,4.9,99,11.89,10.3,1008.19,360.0
2018-09-27 12:50,51.7102666666667,-96.79113,19.6,25.2,12,981.43,4.8,99,12.18,8.6,1008.58,360.0
2018-09-27 13:00,51.7118566666667,-96.7922566666667,14.3,18.3,26,981.95,4.9,100,12.22,0.6,1009.12,5.1
2018-09-27 13:10,51.70907,-96.79369,13.5,17.3,32,982.14,5.1,99,12.23,1.1,1009.31,5.1
2018-09-27 13:20,51.715155,-96.803305,14.4,20.2,14,982.14,5.2,99,12.22,3.1,1009.31,5.1
2018-09-27 13:30,51.7379716666667,-96.8312616666667,20.7,24.1,357,981.94,5.2,99,12.11,10.3,1009.11,5.1
2018-09-27 13:40,51.7609583333333,-96.85759,22.3,25.2,1,982.03,5.3,99,12.00,10.1,1009.19,5.1
2018-09-27 13:50,51.7846283333333,-96.881925,21.4,25.4,358,982.08,5.3,99,11.92,10.1,1009.24,5.1
2018-09-27 14:00,51.8114733333333,-96.8998683333333,20.7,24.2,3,982.15,5.0,99,11.80,10.5,1009.34,340.8
2018-09-27 14:10,51.83826,-96.9196616666667,21.2,24.8,4,982.33,4.9,99,11.76,10.6,1009.52,340.8
2018-09-27 14:20,51.86491,-96.9395133333333,22.8,25.7,9,982.59,5.0,99,11.65,10.6,1009.80,340.8
2018-09-27 14:30,51.89172,-96.9594383333333,22.2,25.2,5,982.80,5.1,99,11.51,10.6,1010.02,340.8
2018-09-27 14:40,51.9187766666667,-96.9789366666667,20.8,24.8,359,983.02,5.0,99,11.45,10.7,1010.25,340.8
2018-09-27 14:50,51.9456783333333,-96.9992533333333,20.7,23.4,358,983.22,4.9,99,11.42,10.7,1010.45,340.8
2018-09-27 15:00,51.9722883333333,-97.020175,21.5,25.6,360,983.34,4.8,99,11.40,10.6,1010.58,338.1
2018-09-27 15:10,51.9997783333333,-97.0376266666667,21.2,24.9,2,983.51,4.9,99,11.49,10.6,1010.74,338.1
2018-09-27 15:20,52.0269516666667,-97.05668,20.7,23.8,2,983.69,4.8,97,11.45,10.7,1010.93,338.1
2018-09-27 15:30,52.0538833333333,-97.0769383333333,20.4,23.4,359,983.83,4.8,94,11.43,10.7,1011.07,338.1
2018-09-27 15:40,52.0804266666667,-97.0984716666667,21.6,25.5,360,983.90,4.9,91,11.38,10.7,1011.14,338.1
2018-09-27 15:50,52.0922866666667,-97.107905,18.8,24.1,9,984.34,5.1,87,11.35,4.8,1011.60,338.1
2018-09-27 16:00,52.0988816666667,-97.1129516666667,17.6,20.5,18,984.63,5.2,86,11.36,2.6,1011.89,333.0
2018-09-27 16:10,52.1052566666667,-97.117005,18.3,21.6,14,984.70,5.4,84,11.35,2.5,1011.95,333.0
2018-09-27 16:20,52.11254,-97.12279,16.7,20.2,13,984.83,5.5,86,11.33,2.9,1012.07,333.0
2018-09-27 16:30,52.1205216666667,-97.1293166666667,15.5,21.7,7,984.92,5.4,84,11.30,3.2,1012.17,333.0
2018-09-27 16:40,52.1205,-97.12925,11.8,13.7,22,985.19,5.5,83,11.27,0.0,1012.45,333.0
2018-09-27 16:50,52.1213483333333,-97.12936,12.2,16.2,16,985.19,5.7,80,11.28,0.3,1012.44,333.0
2018-09-27 17:00,52.1359816666667,-97.14047,15.4,23.6,7,985.04,6.0,76,11.25,5.8,1012.27,335.5
2018-09-27 17:10,52.1635633333333,-97.15897,20.3,25.9,358,984.75,6.0,74,11.19,10.7,1011.98,335.5
2018-09-27 17:20,52.1909016666667,-97.1782683333333,18.7,22.9,359,984.91,6.1,67,11.23,10.7,1012.14,335.5
2018-09-27 17:30,52.2196533333333,-97.18825,20.5,24.4,3,984.78,6.2,64,11.20,10.6,1012.00,335.5
2018-09-27 17:40,52.2352966666667,-97.18969,15.6,24.6,16,985.35,6.3,60,10.54,5.6,1012.56,335.5
2018-09-27 17:50,52.2430933333333,-97.1910683333333,12.7,15.7,8,985.55,6.4,60,10.37,2.8,1012.77,335.5
2018-09-27 18:00,52.250835,-97.19223,12.6,15.4,9,985.54,6.5,55,10.61,2.8,1012.74,339.3
2018-09-27 18:10,52.2593716666667,-97.1936866666667,13.3,19.6,359,985.54,6.6,54,10.67,3.1,1012.72,339.3
2018-09-27 18:20,52.266175,-97.1919366666667,13.8,20.0,358,985.61,6.8,51,10.72,2.5,1012.79,339.3
2018-09-27 18:30,52.2661616666667,-97.1920583333333,11.7,14.6,353,985.85,6.9,51,10.72,0.0,1013.03,339.3
2018-09-27 18:40,52.2661516666667,-97.1919283333333,12.0,14.9,350,985.90,6.9,49,10.72,0.0,1013.08,339.3
2018-09-27 18:50,52.26615,-97.1919983333333,12.6,16.1,343,985.90,6.9,48,10.71,0.0,1013.06,339.3
2018-09-27 19:00,52.26615,-97.191905,12.7,16.6,338,985.95,6.9,48,10.71,0.0,1013.11,343.9
2018-09-27 19:10,52.28573,-97.19293,19.3,25.1,348,985.42,6.9,48,10.70,7.1,1012.56,343.9
2018-09-27 19:20,52.315455,-97.1921683333333,22.6,25.4,349,985.15,6.8,49,10.88,10.7,1012.28,343.9
2018-09-27 19:30,52.34523,-97.192875,21.4,24.2,349,985.25,6.8,51,11.03,10.7,1012.39,343.9
2018-09-27 19:40,52.3678633333333,-97.2199566666667,21.5,27.3,334,985.36,6.7,51,10.90,10.1,1012.49,343.9
2018-09-27 19:50,52.3874983333333,-97.25646,21.1,26.0,329,985.56,6.9,49,10.64,10.7,1012.68,343.9
2018-09-27 20:00,52.4064366666667,-97.2890833333333,21.3,25.6,328,985.53,7.0,50,10.79,9.9,1012.65,341.5
2018-09-27 20:10,52.4120416666667,-97.2989466666667,14.2,20.3,331,986.13,6.7,51,11.12,3.0,1013.26,341.5
2018-09-27 20:20,52.4164116666667,-97.3085483333333,14.0,18.4,313,986.23,6.6,55,11.08,2.6,1013.37,341.5
2018-09-27 20:30,52.42398,-97.3105066666667,14.2,18.4,306,986.27,6.4,63,11.04,2.8,1013.42,341.5
2018-09-27 20:40,52.4235133333333,-97.3039933333333,8.7,17.7,299,986.65,6.5,62,11.04,1.4,1013.80,341.5
2018-09-27 20:50,52.433035,-97.336915,15.0,20.0,303,986.17,6.6,63,11.07,8.0,1013.31,341.5
2018-09-27 21:00,52.4331966666667,-97.3378983333333,6.6,9.4,297,986.71,6.1,65,11.15,0.2,1013.89,334.0
2018-09-27 21:10,52.4332183333333,-97.337875,7.4,9.8,285,986.66,6.1,66,11.17,0.0,1013.83,334.0
2018-09-27 21:20,52.43316,-97.3379466666667,5.6,8.1,288,986.71,6.2,66,11.19,0.0,1013.88,334.0
2018-09-27 21:30,52.43319,-97.337895,6.5,9.2,290,986.67,6.5,66,11.20,0.0,1013.83,334.0
2018-09-27 21:40,52.4429266666667,-97.3447566666667,12.9,26.2,322,986.23,7.3,58,11.23,3.8,1013.33,334.0
2018-09-27 21:50,52.4712683333333,-97.3614666666667,22.5,25.3,332,985.52,7.7,50,11.47,10.8,1012.58,334.0
2018-09-27 22:00,52.49933,-97.3795666666667,22.1,25.9,333,985.61,7.6,52,11.57,10.9,1012.68,333.9
2018-09-27 22:10,52.527625,-97.3969816666667,21.1,25.1,331,985.75,7.6,50,11.63,10.9,1012.84,333.9
2018-09-27 22:20,52.5542416666667,-97.4203566666667,21.7,25.4,324,985.64,7.3,51,11.73,10.9,1012.75,333.9
2018-09-27 22:30,52.5803583333333,-97.4452766666667,21.8,24.8,325,985.62,7.4,52,11.84,10.9,1012.72,333.9
2018-09-27 22:40,52.6072683333333,-97.46825,20.3,23.5,327,985.70,7.6,52,11.88,10.9,1012.79,333.9
2018-09-27 22:50,52.63385,-97.4922866666667,20.1,23.6,329,985.70,7.5,52,11.90,10.9,1012.82,333.9
2018-09-27 23:00,52.660365,-97.51684,18.6,21.7,327,985.80,7.4,54,11.94,10.9,1012.93,331.5
2018-09-27 23:10,52.687035,-97.5410983333333,17.9,20.5,324,985.90,7.3,55,11.95,11.0,1013.03,331.5
2018-09-27 23:20,52.7141533333333,-97.5639433333333,17.5,20.6,322,986.04,7.2,57,11.93,11.0,1013.16,331.5
2018-09-27 23:30,52.74319,-97.57887,19.6,25.2,310,985.96,7.0,66,11.86,10.9,1013.05,331.5
